This demonstration page uses our WeatherBlox Daily Observations layout. Learn more.

Left ArrowRight Arrow

Hourly Observations for June 15, 2017

Temp ( °F °C ) Dew Point ( °F °C ) Humidity (%) Winds ( mph kmh ) Pressure ( in mb ) Visibility ( mi km ) Precip ( " mm )
12:51 am 00:51 Clear 80 26.7 -4 -20 3 3 NW 12 19 29.71 1006 10 16 N/A
1:51 am 01:51 Clear 71 21.7 -2 -18.9 5 5 N N/A 29.75 1007 10 16 N/A
2:51 am 02:51 Clear 64 17.8 3 -16.1 9 9 SE 5 7 29.76 1008 10 16 N/A
3:51 am 03:51 Clear 61 16.1 1 -17.2 9 9 N N/A 29.78 1008 10 16 N/A
4:51 am 04:51 Clear 58 14.4 -2 -18.9 8 8 ESE 5 7 29.79 1009 10 16 N/A
5:51 am 05:51 Sunny 62 16.7 N/A 8 8 SSE 3 6 29.81 1009 10 16 N/A
6:51 am 06:51 Sunny 70 21.1 4 -15.6 7 7 SE 5 7 29.83 1010 10 16 N/A
7:51 am 07:51 Sunny 76 24.4 3 -16.1 6 6 ESE 6 9 29.84 1011 10 16 N/A
8:51 am 08:51 Sunny 84 28.9 2 -16.7 4 4 VRB 5 7 29.83 1010 10 16 N/A
9:51 am 09:51 Sunny 87 30.6 8 -13.3 5 5 N N/A 29.83 1010 10 16 N/A
10:51 am 10:51 Sunny 92 33.3 4 -15.6 3 3 NW 3 6 29.81 1010 10 16 N/A
11:51 am 11:51 Sunny 95 35 4 -15.6 3 3 W 5 7 29.80 1009 10 16 N/A
12:51 pm 12:51 Sunny 100 37.8 -2 -18.9 2 2 VRB 7 11 29.76 1008 10 16 N/A
1:51 pm 13:51 Sunny 101 38.3 N/A 2 2 VRB 5 7 29.76 1008 10 16 N/A
2:51 pm 14:51 Partly Cloudy 103 39.4 -1 -18.3 2 2 VRB 5 7 29.74 1007 10 16 N/A
3:51 pm 15:51 Mostly Cloudy 101 38.3 -3 -19.4 2 2 undefined N/A 29.73 1007 10 16 N/A
4:51 pm 16:51 Mostly Sunny 103 39.4 -3 -19.4 2 2 SW 9 15 29.70 1006 10 16 N/A
5:51 pm 17:51 Mostly Sunny 103 39.4 -7 -21.7 1 1 WNW 8 13 29.69 1006 10 16 N/A
6:51 pm 18:51 Mostly Cloudy 100 37.8 -7 -21.7 2 2 NW 13 20 29.70 1006 10 16 N/A
7:51 pm 19:51 Cloudy 92 33.3 -6 -21.1 2 2 WNW 10 17 29.72 1006 10 16 N/A
8:51 pm 20:51 Cloudy with Light Rain 85 29.4 -5 -20.6 3 3 NW 10 17 29.74 1007 10 16 N/A
9:51 pm 21:51 Clear 80 26.7 -4 -20 3 3 NW 10 17 29.76 1008 10 16 N/A
10:51 pm 22:51 Mostly Cloudy 81 27.2 N/A 4 4 NW 12 19 29.75 1007 10 16 N/A
11:51 pm 23:51 Clear with Light Rain 79 26.1 -1 -18.3 4 4 WNW 13 20 29.75 1007 10 16 N/A

Powered by AerisWeather